Preston, Minnesota, United States (55965)
Lat: 43.67N, Lon: 92.08W
Wx Zone: MNZ095
Local Info
Past Weather Observations for Today

NOTE: This archive is for the closest National Weather Service station to Preston. Information may differ from the station used for current weather conditions.

Click here for Long-term Archive

Time Weather Temperature Dewpoint Humidity Pressure Winds Precip Visibility
07:35
Mostly Cloudy
Hazy
5°F / -15°C -2°F / -19°C 72% 29.98 in
(1015 mb)
N 18.4 mph
(N 30 kph)
- 5SM
07:15
Mostly Cloudy
Hazy
5°F / -15°C -2°F / -19°C 72% 29.98 in
(1015 mb)
NNW 12.7 mph
(NNW 20 kph)
- 5SM
06:54
Overcast
Hazy
5°F / -15°C °F / -18°C 78% 29.98 in
(1015 mb)
N 11.5 mph
(N 19 kph)
- 5SM
06:35
Overcast
Hazy
5°F / -15°C °F / -18°C 78% 29.98 in
(1015 mb)
NNW 18.4 mph
(NNW 30 kph)
- 5SM
06:15
Overcast
7°F / -14°C °F / -18°C 72% 29.95 in
(1014 mb)
NNW 17.3 mph
(NNW 28 kph)
- 10SM
05:55
Mostly Cloudy
7°F / -14°C °F / -18°C 72% 29.95 in
(1014 mb)
NNW 11.5 mph
(NNW 19 kph)
- 10SM
05:35
Partly Cloudy
7°F / -14°C °F / -18°C 72% 29.95 in
(1014 mb)
NNW 9.2 mph
(NNW 15 kph)
- 10SM
05:15
Partly Cloudy
7°F / -14°C °F / -18°C 72% 29.95 in
(1014 mb)
N 10.4 mph
(N 17 kph)
- 10SM
04:55
Partly Cloudy
7°F / -14°C °F / -18°C 72% 29.95 in
(1014 mb)
NNW 11.5 mph
(NNW 19 kph)
- 10SM
04:35
Mostly Cloudy
7°F / -14°C °F / -18°C 72% 29.95 in
(1014 mb)
N 11.5 mph
(N 19 kph)
- 10SM
04:15
Mostly Cloudy
7°F / -14°C °F / -18°C 72% 29.95 in
(1014 mb)
N 18.4 mph
(N 30 kph)
- 10SM
03:55
Overcast
Hazy
7°F / -14°C °F / -18°C 72% 29.92 in
(1013 mb)
N 16.1 mph
(N 26 kph)
- 5SM
03:35
Overcast
9°F / -13°C 1°F / -17°C 72% 29.92 in
(1013 mb)
N 13.8 mph
(N 22 kph)
- 7SM
03:15
Overcast
9°F / -13°C 1°F / -17°C 72% 29.92 in
(1013 mb)
N 18.4 mph
(N 30 kph)
- 7SM
02:55
Overcast
9°F / -13°C 3°F / -16°C 78% 29.92 in
(1013 mb)
NNW 16.1 mph
(NNW 26 kph)
- 7SM
02:35
Overcast
9°F / -13°C 3°F / -16°C 78% 29.89 in
(1012 mb)
N 17.3 mph
(N 28 kph)
- 7SM
02:15
Overcast
Hazy
9°F / -13°C 3°F / -16°C 78% 29.92 in
(1013 mb)
N 15 mph
(N 24 kph)
- 5SM
01:55
Overcast
Hazy
9°F / -13°C 3°F / -16°C 78% 29.89 in
(1012 mb)
N 18.4 mph
(N 30 kph)
- 5SM
01:35
Overcast
Hazy
10°F / -12°C 3°F / -16°C 72% 29.89 in
(1012 mb)
N 18.4 mph
(N 30 kph)
- 4SM
01:15
Overcast
10°F / -12°C 5°F / -15°C 79% 29.89 in
(1012 mb)
N 16.1 mph
(N 26 kph)
- 7SM
00:55
Overcast
10°F / -12°C 5°F / -15°C 79% 29.89 in
(1012 mb)
N 18.4 mph
(N 30 kph)
- 7SM
00:35
Overcast
10°F / -12°C 5°F / -15°C 79% 29.89 in
(1012 mb)
N 13.8 mph
(N 22 kph)
- 10SM
00:15
Overcast
10°F / -12°C 5°F / -15°C 79% 29.89 in
(1012 mb)
N 17.3 mph
(N 28 kph)
- 10SM
Time Weather Temperature Dewpoint Humidity Pressure Winds Precip Visibility


Weather for websites

WeatherForYou.com, LLC is not responsible for any damages or problems caused by this service. Current weather conditions are obtained from the closest station including government and personal stations which may have varying degrees of accuracy. Weather forecasts are derived from the NOAA NDFD. Like all things, this site belongs to Jesus Christ... He just trusts us to maintain it. If you have any questions or comments email webmaster@weatherforyou.com

Copyright © 2016, WeatherForYou.com LLC. All rights reserved.